When you browse on this site, cookies collect data to enhance your experience and personalize the content and advertising you see.
Visit our Privacy Policy to learn more. By continuing to use the site, you agree to this use of cookies and data.
  • En España
  • Lista de países
  • Para 7 días
  • Temperatura del agua
  • El tiempo en el mapa
  • Informadores
  • user-avatar
    Iniciar sesión

    Tiempo cada hora Natal

    Hoy, 28 Febrero, Viernes

    Tiempo Temperatura Precipitaciones Viento Presión Humedad
    00:00 +29°C° 0.1 mm 3 mps 759 mmHg 83%
    01:00 +29°C° 0.1 mm 3 mps 758 mmHg 83%
    02:00 +29°C° 0 mm 2 mps 758 mmHg 83%
    03:00 +29°C° 0 mm 2 mps 758 mmHg 83%
    04:00 +29°C° 0 mm 1 mps 758 mmHg 83%
    05:00 +29°C° 0 mm 1 mps 758 mmHg 83%
    06:00 +29°C° 0 mm 2 mps 758 mmHg 83%
    07:00 +29°C° 0 mm 2 mps 758 mmHg 82%
    08:00 +30°C° 0 mm 2 mps 759 mmHg 76%
    09:00 +31°C° 0 mm 2 mps 759 mmHg 70%
    10:00 +32°C° 0 mm 2 mps 760 mmHg 64%
    11:00 +34°C° 0.6 mm 3 mps 759 mmHg 64%
    12:00 +34°C° 0.6 mm 3 mps 759 mmHg 63%
    13:00 +34°C° 0.6 mm 4 mps 758 mmHg 62%
    14:00 +34°C° 0.6 mm 4 mps 758 mmHg 63%
    15:00 +34°C° 0.6 mm 4 mps 757 mmHg 63%
    16:00 +34°C° 0.6 mm 5 mps 757 mmHg 63%
    17:00 +33°C° 0.1 mm 5 mps 757 mmHg 67%
    18:00 +32°C° 0.1 mm 5 mps 758 mmHg 70%
    19:00 +30°C° 0.1 mm 4 mps 758 mmHg 73%
    20:00 +30°C° 0.1 mm 4 mps 758 mmHg 75%
    21:00 +30°C° 0.1 mm 4 mps 759 mmHg 76%
    22:00 +30°C° 0.1 mm 4 mps 759 mmHg 77%
    23:00 +29°C° 0.1 mm 4 mps 759 mmHg 79%

    Mañana, 29 Febrero, Sábado

    Tiempo Temperatura Precipitaciones Viento Presión Humedad
    00:00 +29°C° 0.1 mm 3 mps 759 mmHg 80%
    01:00 +29°C° 0.1 mm 3 mps 759 mmHg 82%
    02:00 +29°C° 0.2 mm 2 mps 758 mmHg 82%
    03:00 +28°C° 0.2 mm 2 mps 758 mmHg 83%
    04:00 +28°C° 0.2 mm 2 mps 758 mmHg 83%
    05:00 +28°C° 0 mm 2 mps 758 mmHg 83%
    06:00 +28°C° 0 mm 2 mps 758 mmHg 84%
    07:00 +28°C° 0 mm 2 mps 758 mmHg 84%
    08:00 +30°C° 0.1 mm 2 mps 759 mmHg 78%
    09:00 +31°C° 0.1 mm 3 mps 759 mmHg 72%
    10:00 +33°C° 0.1 mm 3 mps 759 mmHg 66%
    11:00 +34°C° 0.1 mm 4 mps 759 mmHg 64%
    12:00 +34°C° 0.1 mm 4 mps 758 mmHg 62%
    13:00 +35°C° 0.1 mm 4 mps 758 mmHg 60%
    14:00 +34°C° 0.1 mm 4 mps 757 mmHg 61%
    15:00 +34°C° 0.1 mm 4 mps 757 mmHg 62%
    16:00 +34°C° 0.1 mm 4 mps 756 mmHg 63%
    17:00 +33°C° 0.2 mm 4 mps 756 mmHg 67%
    18:00 +31°C° 0.2 mm 3 mps 757 mmHg 71%
    19:00 +30°C° 0.2 mm 3 mps 757 mmHg 75%
    20:00 +30°C° 0.2 mm 3 mps 758 mmHg 76%
    21:00 +30°C° 0.2 mm 3 mps 758 mmHg 78%
    22:00 +29°C° 0.2 mm 2 mps 759 mmHg 79%
    23:00 +29°C° 0.9 mm 2 mps 758 mmHg 79%

    Pasado mañana, 1 Marzo, Domingo

    Tiempo Temperatura Precipitaciones Viento Presión Humedad
    00:00 +29°C° 0.9 mm 2 mps 758 mmHg 80%
    01:00 +29°C° 0.9 mm 1 mps 758 mmHg 80%
    02:00 +29°C° 1.3 mm 1 mps 757 mmHg 81%
    03:00 +28°C° 1.3 mm 1 mps 757 mmHg 81%
    04:00 +28°C° 1.3 mm 1 mps 757 mmHg 82%
    05:00 +28°C° 0.4 mm 1 mps 757 mmHg 82%
    06:00 +28°C° 0.4 mm 2 mps 757 mmHg 83%
    07:00 +28°C° 0.4 mm 2 mps 758 mmHg 84%
    08:00 +29°C° 0.4 mm 2 mps 758 mmHg 79%
    09:00 +30°C° 0.4 mm 3 mps 758 mmHg 74%
    10:00 +31°C° 0.4 mm 3 mps 759 mmHg 70%
    11:00 +32°C° 1.5 mm 4 mps 758 mmHg 70%
    12:00 +32°C° 1.5 mm 4 mps 758 mmHg 70%
    13:00 +32°C° 1.5 mm 5 mps 758 mmHg 71%
    14:00 +32°C° 0.7 mm 5 mps 757 mmHg 71%
    15:00 +32°C° 0.7 mm 5 mps 756 mmHg 71%
    16:00 +32°C° 0.7 mm 5 mps 756 mmHg 71%
    17:00 +32°C° 0.5 mm 5 mps 756 mmHg 74%
    18:00 +30°C° 0.5 mm 4 mps 757 mmHg 77%
    19:00 +29°C° 0.5 mm 4 mps 757 mmHg 80%
    20:00 +29°C° 1.6 mm 4 mps 757 mmHg 81%
    21:00 +28°C° 1.6 mm 4 mps 758 mmHg 82%
    22:00 +28°C° 1.6 mm 4 mps 758 mmHg 84%
    23:00 +28°C° 2.7 mm 4 mps 758 mmHg 84%

    2 Marzo, Lunes

    Tiempo Temperatura Precipitaciones Viento Presión Humedad
    00:00 +28°C° 2.7 mm 4 mps 758 mmHg 84%
    01:00 +28°C° 2.7 mm 4 mps 758 mmHg 83%
    02:00 +28°C° 2.4 mm 3 mps 757 mmHg 85%
    03:00 +28°C° 2.4 mm 3 mps 757 mmHg 86%
    04:00 +27°C° 2.4 mm 3 mps 757 mmHg 88%
    05:00 +27°C° 5.5 mm 2 mps 757 mmHg 89%
    06:00 +27°C° 5.5 mm 2 mps 758 mmHg 91%
    07:00 +26°C° 5.5 mm 2 mps 758 mmHg 93%
    08:00 +26°C° 2.8 mm 2 mps 758 mmHg 91%
    09:00 +26°C° 2.8 mm 3 mps 759 mmHg 90%
    10:00 +26°C° 2.8 mm 3 mps 759 mmHg 89%
    11:00 +27°C° 0.2 mm 3 mps 759 mmHg 85%
    12:00 +28°C° 0.2 mm 2 mps 759 mmHg 81%
    13:00 +29°C° 0.2 mm 2 mps 758 mmHg 76%
    14:00 +29°C° 0 mm 2 mps 757 mmHg 74%
    15:00 +30°C° 0 mm 2 mps 757 mmHg 71%
    16:00 +30°C° 0 mm 2 mps 756 mmHg 69%
    17:00 +29°C° 0 mm 2 mps 756 mmHg 72%
    18:00 +29°C° 0 mm 2 mps 756 mmHg 75%
    19:00 +28°C° 0 mm 2 mps 757 mmHg 78%
    20:00 +28°C° 0 mm 2 mps 757 mmHg 80%
    21:00 +28°C° 0 mm 3 mps 758 mmHg 81%
    22:00 +28°C° 0 mm 3 mps 758 mmHg 82%
    23:00 +28°C° 0 mm 2 mps 758 mmHg 82%

    3 Marzo, Martes

    Tiempo Temperatura Precipitaciones Viento Presión Humedad
    00:00 +28°C° 0 mm 2 mps 758 mmHg 82%
    01:00 +28°C° 0 mm 2 mps 758 mmHg 82%
    02:00 +28°C° 0.3 mm 2 mps 757 mmHg 83%
    03:00 +28°C° 0.3 mm 2 mps 757 mmHg 84%
    04:00 +27°C° 0.3 mm 2 mps 757 mmHg 84%
    05:00 +28°C° 0.2 mm 1 mps 757 mmHg 84%
    06:00 +28°C° 0.2 mm 1 mps 757 mmHg 84%
    07:00 +28°C° 0.2 mm 1 mps 758 mmHg 84%
    08:00 +29°C° 0.1 mm 1 mps 758 mmHg 78%
    09:00 +30°C° 0.1 mm 1 mps 758 mmHg 71%
    10:00 +32°C° 0.1 mm 2 mps 759 mmHg 65%
    11:00 +32°C° 0 mm 2 mps 758 mmHg 63%
    12:00 +34°C° 0 mm 2 mps 758 mmHg 61%
    13:00 +34°C° 0 mm 3 mps 757 mmHg 59%
    14:00 +34°C° 0.1 mm 3 mps 757 mmHg 60%
    15:00 +34°C° 0.1 mm 3 mps 757 mmHg 60%
    16:00 +34°C° 0.1 mm 3 mps 756 mmHg 61%
    17:00 +33°C° 0 mm 3 mps 757 mmHg 65%
    18:00 +31°C° 0 mm 3 mps 757 mmHg 69%
    19:00 +30°C° 0 mm 3 mps 757 mmHg 72%
    20:00 +30°C° 0 mm 2 mps 758 mmHg 74%
    21:00 +30°C° 0 mm 2 mps 758 mmHg 75%
    22:00 +29°C° 0 mm 2 mps 759 mmHg 77%
    23:00 +29°C° 0 mm 2 mps 758 mmHg 78%

    4 Marzo, Miércoles

    Tiempo Temperatura Precipitaciones Viento Presión Humedad
    00:00 +29°C° 0 mm 2 mps 758 mmHg 79%
    01:00 +29°C° 0 mm 2 mps 758 mmHg 80%
    02:00 +29°C° 0.1 mm 2 mps 758 mmHg 81%
    03:00 +29°C° 0.1 mm 2 mps 758 mmHg 82%
    04:00 +28°C° 0.1 mm 2 mps 757 mmHg 82%
    05:00 +28°C° 0.4 mm 2 mps 758 mmHg 83%
    06:00 +28°C° 0.4 mm 2 mps 758 mmHg 83%
    07:00 +28°C° 0.4 mm 2 mps 758 mmHg 83%
    08:00 +30°C° 0.2 mm 2 mps 759 mmHg 77%
    09:00 +31°C° 0.2 mm 2 mps 759 mmHg 71%
    10:00 +32°C° 0.2 mm 2 mps 760 mmHg 64%
    11:00 +34°C° 0.6 mm 2 mps 759 mmHg 62%
    12:00 +34°C° 0.6 mm 3 mps 759 mmHg 61%
    13:00 +34°C° 0.6 mm 3 mps 758 mmHg 59%
    14:00 +34°C° 0.1 mm 4 mps 758 mmHg 59%
    15:00 +34°C° 0.1 mm 4 mps 758 mmHg 60%
    16:00 +34°C° 0.1 mm 4 mps 757 mmHg 61%
    17:00 +33°C° 0 mm 4 mps 757 mmHg 65%
    18:00 +31°C° 0 mm 3 mps 757 mmHg 69%
    19:00 +30°C° 0 mm 3 mps 758 mmHg 73%
    20:00 +30°C° 0.1 mm 3 mps 758 mmHg 75%
    21:00 +29°C° 0.1 mm 2 mps 758 mmHg 76%
    22:00 +29°C° 0.1 mm 2 mps 759 mmHg 78%
    23:00 +29°C° 0.2 mm 2 mps 759 mmHg 78%
    Mostrar más